BWA414 TTPP-MKJP

Flight info

Callsign BWA414
Flight time 2h 47m
Altitude 34000
Route ANADA DCT NEGON/N0469F360 DCT PIGBI DCT NOSIS UL349 LORBI
Aircraft B738/M-SDE2E3FGHIRWXY/LB1

Departure

Time 2026-04-27 14:56
Airport Piarco International Airport (TTPP)

Arrival

Time 2026-04-27 17:43
Airport Norman Manley International Airport (MKJP)
Time Latitude Longitude Altitude Speed Heading
2026-04-27 14:28 10.59960 -61.33998 50 ft 0 kts
2026-04-27 14:45 10.59959 -61.33999 50 ft 2 kts
2026-04-27 14:45 10.59934 -61.34002 49 ft 4 kts
2026-04-27 14:46 10.59907 -61.34006 50 ft 4 kts 10°
2026-04-27 14:46 10.59880 -61.34010 47 ft 4 kts
2026-04-27 14:46 10.59853 -61.34010 50 ft 4 kts 355°
2026-04-27 14:46 10.59833 -61.34008 50 ft 1 kts 354°
2026-04-27 14:47 10.59829 -61.34008 50 ft 2 kts 354°
2026-04-27 14:51 10.59833 -61.34011 50 ft 1 kts 317°
2026-04-27 14:51 10.59835 -61.34022 50 ft 2 kts 277°
2026-04-27 14:51 10.59836 -61.34036 50 ft 0 kts 272°
2026-04-27 14:52 10.59836 -61.34059 47 ft 6 kts 271°
2026-04-27 14:52 10.59837 -61.34119 50 ft 10 kts 268°
2026-04-27 14:52 10.59802 -61.34172 47 ft 9 kts 191°
2026-04-27 14:52 10.59740 -61.34177 50 ft 9 kts 192°
2026-04-27 14:53 10.59707 -61.34224 50 ft 9 kts 264°
2026-04-27 14:53 10.59705 -61.34305 50 ft 14 kts 270°
2026-04-27 14:53 10.59705 -61.34425 50 ft 19 kts 270°
2026-04-27 14:53 10.59662 -61.34525 49 ft 12 kts 197°
2026-04-27 14:54 10.59634 -61.34527 50 ft 0 kts 181°
2026-04-27 14:54 10.59617 -61.34527 47 ft 6 kts 178°
2026-04-27 14:54 10.59550 -61.34518 50 ft 12 kts 143°
2026-04-27 14:55 10.59538 -61.34436 48 ft 13 kts 88°
2026-04-27 14:55 10.59539 -61.34179 51 ft 75 kts 90°
2026-04-27 14:55 10.59537 -61.33384 51 ft 147 kts 90°
2026-04-27 14:55 10.59563 -61.32218 576 ft 166 kts 88°
2026-04-27 14:56 10.59604 -61.31114 1816 ft 152 kts 90°
2026-04-27 14:56 10.59625 -61.30028 2643 ft 156 kts 90°
2026-04-27 14:56 10.59612 -61.28844 3133 ft 179 kts 93°
2026-04-27 14:56 10.59580 -61.27527 3628 ft 194 kts 90°
2026-04-27 14:57 10.59597 -61.26111 4021 ft 210 kts 89°
2026-04-27 14:57 10.59819 -61.24571 4225 ft 235 kts 70°
2026-04-27 14:57 10.60811 -61.23094 4168 ft 278 kts 44°
2026-04-27 14:57 10.62544 -61.22139 4932 ft 288 kts 15°
2026-04-27 14:58 10.64516 -61.22036 6127 ft 283 kts 357°
2026-04-27 14:58 10.66428 -61.22589 6938 ft 291 kts 335°
2026-04-27 14:58 10.68199 -61.23632 7706 ft 297 kts 330°
2026-04-27 14:58 10.69942 -61.24782 8484 ft 301 kts 328°
2026-04-27 14:59 10.71671 -61.25949 9217 ft 302 kts 328°
2026-04-27 14:59 10.73433 -61.27144 9889 ft 307 kts 328°
2026-04-27 14:59 10.75215 -61.28348 10389 ft 319 kts 328°
2026-04-27 14:59 10.77185 -61.29670 10544 ft 341 kts 328°
2026-04-27 15:00 10.79225 -61.31033 10723 ft 361 kts 328°
2026-04-27 15:00 10.81360 -61.32451 11129 ft 371 kts 328°
2026-04-27 15:00 10.83534 -61.33895 11718 ft 375 kts 328°
2026-04-27 15:00 10.85724 -61.35349 12365 ft 377 kts 328°
2026-04-27 15:01 10.87934 -61.36814 12981 ft 380 kts 328°
2026-04-27 15:01 10.90155 -61.38285 13606 ft 382 kts 327°
2026-04-27 15:01 10.92397 -61.39770 14169 ft 385 kts 327°
2026-04-27 15:01 10.94654 -61.41265 14740 ft 389 kts 327°
2026-04-27 15:02 10.96927 -61.42771 15300 ft 392 kts 327°
2026-04-27 15:02 10.99217 -61.44287 15859 ft 394 kts 327°
2026-04-27 15:02 11.01527 -61.45817 16413 ft 397 kts 327°
2026-04-27 15:02 11.03847 -61.47354 16922 ft 400 kts 327°
2026-04-27 15:03 11.06188 -61.48905 17428 ft 403 kts 327°
2026-04-27 15:03 11.08553 -61.50472 17963 ft 405 kts 327°
2026-04-27 15:03 11.10925 -61.52044 18449 ft 408 kts 327°
2026-04-27 15:03 11.13313 -61.53627 18886 ft 412 kts 327°
2026-04-27 15:04 11.15730 -61.55229 19277 ft 416 kts 327°
2026-04-27 15:04 11.18165 -61.56844 19691 ft 420 kts 327°
2026-04-27 15:04 11.20629 -61.58477 20120 ft 423 kts 327°
2026-04-27 15:04 11.23076 -61.60100 20512 ft 426 kts 327°
2026-04-27 15:05 11.25568 -61.61753 20912 ft 429 kts 327°
2026-04-27 15:05 11.28081 -61.63422 21291 ft 432 kts 327°
2026-04-27 15:05 11.30644 -61.65123 21669 ft 435 kts 327°
2026-04-27 15:05 11.33192 -61.66814 22012 ft 439 kts 327°
2026-04-27 15:06 11.35725 -61.68496 22331 ft 442 kts 327°
2026-04-27 15:06 11.38311 -61.70213 22652 ft 445 kts 327°
2026-04-27 15:06 11.40912 -61.71941 22968 ft 448 kts 326°
2026-04-27 15:06 11.42683 -61.73118 23199 ft 449 kts 326°
2026-04-27 15:07 11.45305 -61.74859 23500 ft 452 kts 326°
2026-04-27 15:07 11.47915 -61.76594 23799 ft 454 kts 326°
2026-04-27 15:07 11.50573 -61.78362 24084 ft 457 kts 326°
2026-04-27 15:07 11.53246 -61.80139 24367 ft 459 kts 326°
2026-04-27 15:08 11.55921 -61.81920 24674 ft 460 kts 326°
2026-04-27 15:08 11.58607 -61.83707 25000 ft 461 kts 326°
2026-04-27 15:08 11.61295 -61.85496 25297 ft 462 kts 326°
2026-04-27 15:08 11.63994 -61.87292 25572 ft 464 kts 326°
2026-04-27 15:09 11.66704 -61.89097 25842 ft 466 kts 326°
2026-04-27 15:09 11.69431 -61.90913 26118 ft 468 kts 326°
2026-04-27 15:09 11.72160 -61.92730 26397 ft 469 kts 326°
2026-04-27 15:09 11.74890 -61.94548 26691 ft 469 kts 326°
2026-04-27 15:10 11.77631 -61.96375 26965 ft 471 kts 326°
2026-04-27 15:10 11.80375 -61.98203 27273 ft 470 kts 326°
2026-04-27 15:10 11.83112 -62.00029 27536 ft 471 kts 326°
2026-04-27 15:10 11.85868 -62.01866 27759 ft 473 kts 326°
2026-04-27 15:11 11.88630 -62.03709 28015 ft 474 kts 326°
2026-04-27 15:11 11.91398 -62.05556 28240 ft 476 kts 326°
2026-04-27 15:11 11.94169 -62.07406 28455 ft 477 kts 326°
2026-04-27 15:11 11.96954 -62.09265 28665 ft 479 kts 326°
2026-04-27 15:12 11.99746 -62.11129 28862 ft 480 kts 326°
2026-04-27 15:12 12.02544 -62.12999 29067 ft 481 kts 326°
2026-04-27 15:12 12.05351 -62.14874 29278 ft 482 kts 326°
2026-04-27 15:12 12.08161 -62.16752 29528 ft 482 kts 326°
2026-04-27 15:13 12.10974 -62.18631 29833 ft 481 kts 326°
2026-04-27 15:13 12.13774 -62.20501 30150 ft 480 kts 326°
2026-04-27 15:13 12.16533 -62.22346 30449 ft 478 kts 326°
2026-04-27 15:13 12.19315 -62.24206 30745 ft 478 kts 326°
2026-04-27 15:14 12.22094 -62.26066 31039 ft 477 kts 325°
2026-04-27 15:14 12.24866 -62.27922 31366 ft 475 kts 325°
2026-04-27 15:14 12.27623 -62.29767 31693 ft 474 kts 325°
2026-04-27 15:14 12.30379 -62.31613 31991 ft 472 kts 325°
2026-04-27 15:15 12.33128 -62.33455 32268 ft 472 kts 325°
2026-04-27 15:15 12.35863 -62.35286 32549 ft 471 kts 325°
2026-04-27 15:15 12.38600 -62.37121 32858 ft 470 kts 325°
2026-04-27 15:15 12.41325 -62.38947 33168 ft 468 kts 325°
2026-04-27 15:16 12.44051 -62.40774 33453 ft 467 kts 325°
2026-04-27 15:16 12.46768 -62.42596 33724 ft 466 kts 325°
2026-04-27 15:16 12.49475 -62.44412 33964 ft 465 kts 325°
2026-04-27 15:16 12.52185 -62.46230 34051 ft 467 kts 325°
2026-04-27 15:17 12.57617 -62.49877 34052 ft 466 kts 325°
2026-04-27 15:17 12.63017 -62.53502 34051 ft 461 kts 325°
2026-04-27 15:18 12.68365 -62.57096 34051 ft 458 kts 325°
2026-04-27 15:18 12.73690 -62.60675 34057 ft 457 kts 325°
2026-04-27 15:19 12.78976 -62.64231 34058 ft 457 kts 325°
2026-04-27 15:19 12.84303 -62.67816 34059 ft 459 kts 325°
2026-04-27 15:20 12.89652 -62.71419 34061 ft 461 kts 325°
2026-04-27 15:20 12.95049 -62.75056 34060 ft 464 kts 325°
2026-04-27 15:21 13.00454 -62.78698 34058 ft 466 kts 325°
2026-04-27 15:21 13.05880 -62.82356 34055 ft 467 kts 325°
2026-04-27 15:22 13.11317 -62.86025 34056 ft 468 kts 325°
2026-04-27 15:22 13.16757 -62.89697 34053 ft 468 kts 325°
2026-04-27 15:23 13.22191 -62.93366 34054 ft 467 kts 325°
2026-04-27 15:23 13.27620 -62.97035 34055 ft 466 kts 325°
2026-04-27 15:24 13.33038 -63.00699 34051 ft 466 kts 325°
2026-04-27 15:24 13.38444 -63.04356 34055 ft 465 kts 325°
2026-04-27 15:25 13.43847 -63.08013 34055 ft 464 kts 325°
2026-04-27 15:25 13.49245 -63.11669 34056 ft 464 kts 325°
2026-04-27 15:26 13.54632 -63.15319 34064 ft 463 kts 324°
2026-04-27 15:26 13.60015 -63.18968 34074 ft 463 kts 325°
2026-04-27 15:27 13.65360 -63.22591 34076 ft 464 kts 324°
2026-04-27 15:27 13.70749 -63.26251 34076 ft 465 kts 324°
2026-04-27 15:28 13.76187 -63.29947 34076 ft 465 kts 324°
2026-04-27 15:28 13.81602 -63.33627 34077 ft 467 kts 324°
2026-04-27 15:29 13.87024 -63.37313 34080 ft 468 kts 324°
2026-04-27 15:29 13.92466 -63.41017 34074 ft 469 kts 324°
2026-04-27 15:30 13.97917 -63.44726 34077 ft 470 kts 324°
2026-04-27 15:30 14.03379 -63.48447 34069 ft 470 kts 324°
2026-04-27 15:31 14.08843 -63.52169 34064 ft 471 kts 324°
2026-04-27 15:31 14.14316 -63.55901 34065 ft 471 kts 324°
2026-04-27 15:32 14.19785 -63.59632 34064 ft 471 kts 324°
2026-04-27 15:32 14.25254 -63.63366 34065 ft 471 kts 324°
2026-04-27 15:33 14.30732 -63.67108 34062 ft 471 kts 324°
2026-04-27 15:33 14.36187 -63.70836 34066 ft 471 kts 324°
2026-04-27 15:34 14.41649 -63.74571 34064 ft 470 kts 324°
2026-04-27 15:34 14.47101 -63.78302 34065 ft 470 kts 324°
2026-04-27 15:35 14.52511 -63.82007 34067 ft 469 kts 324°
2026-04-27 15:35 14.57944 -63.85730 34065 ft 469 kts 324°
2026-04-27 15:36 14.63381 -63.89457 34065 ft 468 kts 324°
2026-04-27 15:36 14.68803 -63.93175 34055 ft 468 kts 324°
2026-04-27 15:37 14.74223 -63.96896 34047 ft 468 kts 324°
2026-04-27 15:37 14.79645 -64.00620 34046 ft 467 kts 323°
2026-04-27 15:38 14.85057 -64.04339 34036 ft 466 kts 323°
2026-04-27 15:38 14.90457 -64.08055 34067 ft 466 kts 323°
2026-04-27 15:39 14.95848 -64.11769 34073 ft 465 kts 322°
2026-04-27 15:39 14.98327 -64.13880 34068 ft 460 kts 311°
2026-04-27 15:39 15.00430 -64.16413 34081 ft 455 kts 302°
2026-04-27 15:40 15.03389 -64.22120 34084 ft 449 kts 290°
2026-04-27 15:40 15.05867 -64.28005 34070 ft 449 kts 290°
2026-04-27 15:41 15.08366 -64.33927 34072 ft 449 kts 290°
2026-04-27 15:41 15.10898 -64.39842 34072 ft 450 kts 290°
2026-04-27 15:42 15.13443 -64.45752 34065 ft 449 kts 290°
2026-04-27 15:42 15.15991 -64.51664 34067 ft 450 kts 290°
2026-04-27 15:43 15.18540 -64.57579 34061 ft 450 kts 290°
2026-04-27 15:43 15.21086 -64.63499 34067 ft 449 kts 290°
2026-04-27 15:44 15.23197 -64.68411 34063 ft 449 kts 290°
2026-04-27 15:44 15.25739 -64.74332 34065 ft 449 kts 290°
2026-04-27 15:45 15.28276 -64.80250 34066 ft 449 kts 290°
2026-04-27 15:45 15.30813 -64.86167 34064 ft 449 kts 290°
2026-04-27 15:46 15.33344 -64.92074 34065 ft 448 kts 290°
2026-04-27 15:46 15.35869 -64.97977 34066 ft 448 kts 290°
2026-04-27 15:47 15.38393 -65.03879 34074 ft 448 kts 290°
2026-04-27 15:47 15.40915 -65.09785 34072 ft 448 kts 290°
2026-04-27 15:48 15.43437 -65.15690 34074 ft 448 kts 290°
2026-04-27 15:49 15.47220 -65.24565 34074 ft 448 kts 290°
2026-04-27 15:49 15.49739 -65.30480 34075 ft 449 kts 290°
2026-04-27 15:50 15.52260 -65.36405 34073 ft 448 kts 290°
2026-04-27 15:50 15.54778 -65.42326 34073 ft 449 kts 289°
2026-04-27 15:51 15.57296 -65.48253 34074 ft 449 kts 289°
2026-04-27 15:51 15.59816 -65.54194 34071 ft 450 kts 289°
2026-04-27 15:52 15.62335 -65.60136 34065 ft 450 kts 289°
2026-04-27 15:52 15.64858 -65.66090 34063 ft 450 kts 289°
2026-04-27 15:53 15.67374 -65.72031 34066 ft 450 kts 289°
2026-04-27 15:53 15.69876 -65.77948 34062 ft 450 kts 289°
2026-04-27 15:54 15.72390 -65.83897 34064 ft 450 kts 289°
2026-04-27 15:54 15.74901 -65.89847 34064 ft 450 kts 289°
2026-04-27 15:55 15.77409 -65.95792 34065 ft 449 kts 289°
2026-04-27 15:55 15.79912 -66.01731 34065 ft 449 kts 289°
2026-04-27 15:56 15.82412 -66.07669 34065 ft 449 kts 289°
2026-04-27 15:56 15.84909 -66.13603 34066 ft 448 kts 289°
2026-04-27 15:57 15.87405 -66.19543 34065 ft 448 kts 289°
2026-04-27 15:57 15.89899 -66.25479 34065 ft 448 kts 289°
2026-04-27 15:58 15.92389 -66.31416 34065 ft 448 kts 289°
2026-04-27 15:58 15.94879 -66.37360 34065 ft 448 kts 289°
2026-04-27 15:59 15.97364 -66.43294 34064 ft 448 kts 289°
2026-04-27 15:59 15.99851 -66.49238 34067 ft 448 kts 289°
2026-04-27 16:00 16.02334 -66.55175 34071 ft 448 kts 289°
2026-04-27 16:00 16.04817 -66.61122 34055 ft 448 kts 289°
2026-04-27 16:01 16.07297 -66.67067 34056 ft 447 kts 289°
2026-04-27 16:01 16.09755 -66.72962 34055 ft 447 kts 289°
2026-04-27 16:02 16.12224 -66.78891 34056 ft 446 kts 289°
2026-04-27 16:02 16.14686 -66.84807 34055 ft 445 kts 289°
2026-04-27 16:03 16.17140 -66.90710 34054 ft 444 kts 289°
2026-04-27 16:03 16.19590 -66.96607 34058 ft 443 kts 289°
2026-04-27 16:04 16.22035 -67.02500 34055 ft 443 kts 289°
2026-04-27 16:04 16.24477 -67.08387 34056 ft 443 kts 289°
2026-04-27 16:05 16.26909 -67.14262 34050 ft 441 kts 289°
2026-04-27 16:05 16.29324 -67.20100 34055 ft 438 kts 289°
2026-04-27 16:06 16.31738 -67.25937 34061 ft 439 kts 289°
2026-04-27 16:06 16.34157 -67.31792 34059 ft 441 kts 289°
2026-04-27 16:07 16.36591 -67.37691 34057 ft 443 kts 289°
2026-04-27 16:07 16.39028 -67.43605 34058 ft 444 kts 289°
2026-04-27 16:08 16.41469 -67.49530 34057 ft 446 kts 289°
2026-04-27 16:08 16.43901 -67.55438 34056 ft 447 kts 289°
2026-04-27 16:09 16.46348 -67.61386 34056 ft 447 kts 289°
2026-04-27 16:09 16.50022 -67.70334 34054 ft 447 kts 289°
2026-04-27 16:10 16.54904 -67.82240 34054 ft 446 kts 289°
2026-04-27 16:11 16.58548 -67.91144 34056 ft 444 kts 289°
2026-04-27 16:12 16.62154 -68.00021 34053 ft 442 kts 286°
2026-04-27 16:13 16.64626 -68.09152 34054 ft 437 kts 281°
2026-04-27 16:13 16.66953 -68.18321 34054 ft 435 kts 281°
2026-04-27 16:14 16.70147 -68.30498 34062 ft 435 kts 281°
2026-04-27 16:15 16.73267 -68.42646 34063 ft 434 kts 281°
2026-04-27 16:16 16.76387 -68.54781 34066 ft 432 kts 281°
2026-04-27 16:17 16.79506 -68.66885 34062 ft 431 kts 281°
2026-04-27 16:18 16.82611 -68.78955 34066 ft 429 kts 280°
2026-04-27 16:19 16.84154 -68.84973 34061 ft 429 kts 281°
2026-04-27 16:20 16.87230 -68.96983 34062 ft 427 kts 280°
2026-04-27 16:21 16.89526 -69.05979 34057 ft 427 kts 280°
2026-04-27 16:22 16.92318 -69.16948 34054 ft 425 kts 280°
2026-04-27 16:22 16.94596 -69.25898 34055 ft 425 kts 280°
2026-04-27 16:23 16.96869 -69.34842 34056 ft 424 kts 280°
2026-04-27 16:24 16.98380 -69.40804 34056 ft 424 kts 280°
2026-04-27 16:25 17.01383 -69.52673 34058 ft 424 kts 280°
2026-04-27 16:26 17.04387 -69.64578 34056 ft 423 kts 280°
2026-04-27 16:27 17.07375 -69.76462 34047 ft 422 kts 280°
2026-04-27 16:28 17.11099 -69.91302 34045 ft 421 kts 280°
2026-04-27 16:29 17.14786 -70.06041 34041 ft 419 kts 279°
2026-04-27 16:30 17.17717 -70.17804 34032 ft 417 kts 279°
2026-04-27 16:31 17.21360 -70.32456 34028 ft 416 kts 279°
2026-04-27 16:32 17.23537 -70.41241 34029 ft 416 kts 279°
2026-04-27 16:33 17.25710 -70.50026 34022 ft 416 kts 279°
2026-04-27 16:33 17.27160 -70.55893 34031 ft 416 kts 279°
2026-04-27 16:34 17.28608 -70.61763 34032 ft 417 kts 279°
2026-04-27 16:34 17.30056 -70.67640 34023 ft 417 kts 279°
2026-04-27 16:35 17.31502 -70.73518 34030 ft 417 kts 279°
2026-04-27 16:36 17.33669 -70.82339 34026 ft 417 kts 279°
2026-04-27 16:36 17.35112 -70.88223 34026 ft 418 kts 279°
2026-04-27 16:37 17.36556 -70.94119 34030 ft 418 kts 279°
2026-04-27 16:37 17.37998 -71.00015 34029 ft 418 kts 279°
2026-04-27 16:38 17.39431 -71.05884 34031 ft 418 kts 279°
2026-04-27 16:38 17.40870 -71.11786 34023 ft 418 kts 279°
2026-04-27 16:39 17.42308 -71.17690 34023 ft 419 kts 279°
2026-04-27 16:39 17.43744 -71.23595 34012 ft 419 kts 279°
2026-04-27 16:40 17.45180 -71.29510 34020 ft 418 kts 279°
2026-04-27 16:40 17.46611 -71.35409 34018 ft 418 kts 279°
2026-04-27 16:41 17.48039 -71.41307 34021 ft 417 kts 279°
2026-04-27 16:41 17.49465 -71.47204 34020 ft 417 kts 279°
2026-04-27 16:42 17.50886 -71.53085 34013 ft 416 kts 279°
2026-04-27 16:42 17.52302 -71.58959 34019 ft 416 kts 279°
2026-04-27 16:43 17.53716 -71.64827 34018 ft 415 kts 278°
2026-04-27 16:43 17.55125 -71.70686 34018 ft 414 kts 278°
2026-04-27 16:44 17.56043 -71.76601 34021 ft 409 kts 272°
2026-04-27 16:44 17.56774 -71.82509 34016 ft 409 kts 272°
2026-04-27 16:45 17.57508 -71.88419 34012 ft 409 kts 272°
2026-04-27 16:45 17.58254 -71.94320 34020 ft 409 kts 272°
2026-04-27 16:46 17.59006 -72.00229 34021 ft 408 kts 272°
2026-04-27 16:46 17.59751 -72.06097 34021 ft 409 kts 272°
2026-04-27 16:47 17.60501 -72.12005 34018 ft 409 kts 272°
2026-04-27 16:47 17.61254 -72.17959 34020 ft 409 kts 272°
2026-04-27 16:48 17.61996 -72.23838 34018 ft 409 kts 272°
2026-04-27 16:48 17.62741 -72.29757 34021 ft 410 kts 272°
2026-04-27 16:49 17.63858 -72.38655 34011 ft 411 kts 272°
2026-04-27 16:49 17.64601 -72.44596 34019 ft 411 kts 272°
2026-04-27 16:50 17.65344 -72.50544 34022 ft 412 kts 272°
2026-04-27 16:50 17.66085 -72.56498 34013 ft 412 kts 272°
2026-04-27 16:51 17.66825 -72.62454 34012 ft 412 kts 272°
2026-04-27 16:51 17.67565 -72.68423 34021 ft 412 kts 272°
2026-04-27 16:52 17.68302 -72.74391 34021 ft 413 kts 272°
2026-04-27 16:52 17.69034 -72.80323 34020 ft 412 kts 272°
2026-04-27 16:53 17.69768 -72.86291 34018 ft 412 kts 272°
2026-04-27 16:53 17.70498 -72.92249 34018 ft 412 kts 272°
2026-04-27 16:54 17.71230 -72.98232 34019 ft 412 kts 272°
2026-04-27 16:54 17.71959 -73.04206 34026 ft 412 kts 272°
2026-04-27 16:55 17.72684 -73.10173 34028 ft 413 kts 272°
2026-04-27 16:55 17.73406 -73.16111 34028 ft 413 kts 272°
2026-04-27 16:56 17.74130 -73.22086 34029 ft 413 kts 272°
2026-04-27 16:56 17.74857 -73.28107 34030 ft 413 kts 272°
2026-04-27 16:57 17.75577 -73.34082 34023 ft 412 kts 272°
2026-04-27 16:57 17.76294 -73.40049 34026 ft 412 kts 272°
2026-04-27 16:58 17.77005 -73.45981 34027 ft 412 kts 272°
2026-04-27 16:58 17.77718 -73.51947 34028 ft 412 kts 272°
2026-04-27 16:59 17.78428 -73.57902 34031 ft 411 kts 272°
2026-04-27 16:59 17.79136 -73.63853 34029 ft 411 kts 272°
2026-04-27 17:00 17.80192 -73.72769 34031 ft 410 kts 272°
2026-04-27 17:01 17.80893 -73.78706 34028 ft 409 kts 272°
2026-04-27 17:01 17.81591 -73.84631 34030 ft 409 kts 272°
2026-04-27 17:02 17.82287 -73.90552 34022 ft 408 kts 272°
2026-04-27 17:02 17.82863 -73.95465 34029 ft 408 kts 272°
2026-04-27 17:03 17.83554 -74.01378 34027 ft 408 kts 272°
2026-04-27 17:03 17.84243 -74.07284 34030 ft 408 kts 272°
2026-04-27 17:04 17.84916 -74.13190 34026 ft 407 kts 270°
2026-04-27 17:04 17.84938 -74.19087 34028 ft 403 kts 264°
2026-04-27 17:05 17.84807 -74.24975 34027 ft 404 kts 264°
2026-04-27 17:05 17.84691 -74.30870 34024 ft 404 kts 264°
2026-04-27 17:06 17.84588 -74.36738 34030 ft 405 kts 265°
2026-04-27 17:06 17.84487 -74.42653 34028 ft 406 kts 265°
2026-04-27 17:07 17.84386 -74.48576 34031 ft 406 kts 265°
2026-04-27 17:07 17.84281 -74.54508 34030 ft 407 kts 265°
2026-04-27 17:08 17.84176 -74.60406 34018 ft 400 kts 264°
2026-04-27 17:08 17.84069 -74.66235 34032 ft 399 kts 264°
2026-04-27 17:09 17.83963 -74.72027 34004 ft 387 kts 264°
2026-04-27 17:09 17.83916 -74.74797 33999 ft 373 kts 264°
2026-04-27 17:09 17.83870 -74.77470 33997 ft 359 kts 264°
2026-04-27 17:09 17.83824 -74.80048 33996 ft 347 kts 264°
2026-04-27 17:10 17.83779 -74.82531 33997 ft 334 kts 264°
2026-04-27 17:10 17.83736 -74.84917 33987 ft 321 kts 264°
2026-04-27 17:10 17.83690 -74.87243 34004 ft 318 kts 264°
2026-04-27 17:11 17.83587 -74.91973 34029 ft 331 kts 264°
2026-04-27 17:11 17.83482 -74.96901 34024 ft 342 kts 264°
2026-04-27 17:11 17.83432 -74.99406 34020 ft 344 kts 264°
2026-04-27 17:12 17.83291 -75.06781 34001 ft 332 kts 264°
2026-04-27 17:13 17.83191 -75.11656 34015 ft 335 kts 264°
2026-04-27 17:13 17.83089 -75.16560 34014 ft 337 kts 264°
2026-04-27 17:14 17.82986 -75.21489 34016 ft 339 kts 264°
2026-04-27 17:14 17.82882 -75.26445 34028 ft 340 kts 264°
2026-04-27 17:15 17.82777 -75.31411 34028 ft 340 kts 264°
2026-04-27 17:15 17.82670 -75.36379 34024 ft 340 kts 264°
2026-04-27 17:16 17.82562 -75.41342 34028 ft 339 kts 264°
2026-04-27 17:16 17.82453 -75.46276 34025 ft 337 kts 264°
2026-04-27 17:17 17.82344 -75.51187 34016 ft 335 kts 264°
2026-04-27 17:17 17.82234 -75.56029 34026 ft 333 kts 264°
2026-04-27 17:18 17.82068 -75.63298 34029 ft 331 kts 264°
2026-04-27 17:18 17.81955 -75.68137 34021 ft 332 kts 264°
2026-04-27 17:19 17.81841 -75.72984 34027 ft 333 kts 264°
2026-04-27 17:19 17.81726 -75.77851 34032 ft 334 kts 264°
2026-04-27 17:20 17.81609 -75.82732 34025 ft 335 kts 264°
2026-04-27 17:20 17.81491 -75.87628 34029 ft 336 kts 264°
2026-04-27 17:21 17.81371 -75.92540 34033 ft 337 kts 264°
2026-04-27 17:21 17.81251 -75.97447 34011 ft 335 kts 264°
2026-04-27 17:22 17.81190 -75.99903 33733 ft 337 kts 264°
2026-04-27 17:22 17.81126 -76.02345 33225 ft 340 kts 264°
2026-04-27 17:22 17.81048 -76.04835 32743 ft 341 kts 264°
2026-04-27 17:22 17.80964 -76.07329 32251 ft 343 kts 264°
2026-04-27 17:23 17.80807 -76.09825 31745 ft 342 kts 256°
2026-04-27 17:23 17.80225 -76.12243 31264 ft 342 kts 252°
2026-04-27 17:23 17.79593 -76.14654 30764 ft 343 kts 253°
2026-04-27 17:23 17.78962 -76.17078 30271 ft 345 kts 253°
2026-04-27 17:24 17.78335 -76.19513 29775 ft 346 kts 253°
2026-04-27 17:24 17.77711 -76.21959 29279 ft 347 kts 254°
2026-04-27 17:24 17.77090 -76.24409 28780 ft 348 kts 254°
2026-04-27 17:24 17.76472 -76.26854 28263 ft 343 kts 254°
2026-04-27 17:25 17.75873 -76.29242 27673 ft 341 kts 255°
2026-04-27 17:25 17.75312 -76.31655 27072 ft 339 kts 256°
2026-04-27 17:25 17.74773 -76.34055 26469 ft 337 kts 256°
2026-04-27 17:25 17.74238 -76.36441 25869 ft 335 kts 257°
2026-04-27 17:26 17.73701 -76.38815 25266 ft 334 kts 257°
2026-04-27 17:26 17.73160 -76.41177 24671 ft 333 kts 257°
2026-04-27 17:26 17.72611 -76.43528 24085 ft 332 kts 257°
2026-04-27 17:26 17.72053 -76.45873 23474 ft 331 kts 257°
2026-04-27 17:27 17.71490 -76.48205 22879 ft 330 kts 256°
2026-04-27 17:27 17.70924 -76.50537 22283 ft 329 kts 256°
2026-04-27 17:27 17.70360 -76.52859 21687 ft 328 kts 256°
2026-04-27 17:27 17.69797 -76.55171 21089 ft 327 kts 256°
2026-04-27 17:28 17.69236 -76.57476 20493 ft 326 kts 256°
2026-04-27 17:28 17.68678 -76.59775 19896 ft 324 kts 256°
2026-04-27 17:28 17.67517 -76.64330 18692 ft 322 kts 251°
2026-04-27 17:29 17.66708 -76.66520 18101 ft 321 kts 250°
2026-04-27 17:29 17.65987 -76.68701 17508 ft 320 kts 253°
2026-04-27 17:29 17.65348 -76.70934 16909 ft 318 kts 255°
2026-04-27 17:29 17.64905 -76.73201 16305 ft 317 kts 263°
2026-04-27 17:30 17.64738 -76.75499 15720 ft 316 kts 268°
2026-04-27 17:30 17.64838 -76.80094 14505 ft 315 kts 274°
2026-04-27 17:30 17.65082 -76.82372 13913 ft 315 kts 278°
2026-04-27 17:31 17.65488 -76.84629 13315 ft 314 kts 283°
2026-04-27 17:31 17.65929 -76.86378 12841 ft 314 kts 286°
2026-04-27 17:31 17.66627 -76.88513 12251 ft 314 kts 291°
2026-04-27 17:31 17.67497 -76.90612 11652 ft 314 kts 295°
2026-04-27 17:32 17.68517 -76.92635 11061 ft 313 kts 300°
2026-04-27 17:32 17.70978 -76.96406 9854 ft 314 kts 309°
2026-04-27 17:32 17.72409 -76.98135 9255 ft 313 kts 314°
2026-04-27 17:33 17.73960 -76.99740 8662 ft 312 kts 318°
2026-04-27 17:33 17.75615 -77.01207 8063 ft 312 kts 323°
2026-04-27 17:33 17.77370 -77.02534 7520 ft 309 kts 328°
2026-04-27 17:33 17.79184 -77.03696 7100 ft 302 kts 332°
2026-04-27 17:34 17.81028 -77.04687 6679 ft 295 kts 336°
2026-04-27 17:34 17.82900 -77.05518 6248 ft 290 kts 341°
2026-04-27 17:34 17.84793 -77.06195 5820 ft 285 kts 345°
2026-04-27 17:34 17.86684 -77.06720 5473 ft 277 kts 349°
2026-04-27 17:35 17.88544 -77.07099 5173 ft 268 kts 353°
2026-04-27 17:35 17.90333 -77.07336 4868 ft 261 kts 356°
2026-04-27 17:35 17.92165 -77.07453 4582 ft 255 kts
2026-04-27 17:35 17.93933 -77.07444 4249 ft 253 kts
2026-04-27 17:36 17.95685 -77.07330 4055 ft 248 kts
2026-04-27 17:36 17.97360 -77.07110 4011 ft 238 kts
2026-04-27 17:36 17.98974 -77.06829 3974 ft 232 kts 13°
2026-04-27 17:36 18.00489 -77.06449 3997 ft 214 kts 18°
2026-04-27 17:37 18.01877 -77.05957 3993 ft 211 kts 24°
2026-04-27 17:37 18.03008 -77.05040 4020 ft 204 kts 54°
2026-04-27 17:37 18.03574 -77.03701 3977 ft 198 kts 89°
2026-04-27 17:37 18.03320 -77.02339 4003 ft 186 kts 106°
2026-04-27 17:38 18.02965 -77.01085 3985 ft 175 kts 107°
2026-04-27 17:38 18.02593 -76.99845 4003 ft 179 kts 110°
2026-04-27 17:38 18.02141 -76.98640 3880 ft 176 kts 113°
2026-04-27 17:38 18.01654 -76.97477 3662 ft 176 kts 114°
2026-04-27 17:39 18.01153 -76.96320 3417 ft 170 kts 114°
2026-04-27 17:39 18.00665 -76.95193 3162 ft 165 kts 114°
2026-04-27 17:39 18.00194 -76.94110 2982 ft 163 kts 111°
2026-04-27 17:39 17.99770 -76.93013 2741 ft 157 kts 116°
2026-04-27 17:40 17.99262 -76.91995 2567 ft 162 kts 115°
2026-04-27 17:40 17.98801 -76.90919 2290 ft 158 kts 113°
2026-04-27 17:40 17.98507 -76.90224 2253 ft 153 kts 113°
2026-04-27 17:40 17.98046 -76.89175 2015 ft 156 kts 114°
2026-04-27 17:41 17.97582 -76.88100 1802 ft 161 kts 114°
2026-04-27 17:41 17.97107 -76.87000 1570 ft 165 kts 114°
2026-04-27 17:41 17.96633 -76.85910 1289 ft 161 kts 114°
2026-04-27 17:41 17.96105 -76.84884 1065 ft 155 kts 121°
2026-04-27 17:42 17.95538 -76.83933 933 ft 148 kts 118°
2026-04-27 17:42 17.95135 -76.82943 684 ft 146 kts 109°
2026-04-27 17:42 17.94819 -76.81951 529 ft 144 kts 109°
2026-04-27 17:42 17.94438 -76.80980 365 ft 145 kts 114°
2026-04-27 17:43 17.94045 -76.79983 90 ft 150 kts 112°
2026-04-27 17:43 17.93665 -76.79007 15 ft 130 kts 112°
2026-04-27 17:43 17.93407 -76.78342 14 ft 68 kts 112°
2026-04-27 17:43 17.93258 -76.77958 16 ft 46 kts 112°
2026-04-27 17:44 17.93235 -76.77767 15 ft 14 kts 30°
2026-04-27 17:44 17.93275 -76.77747 15 ft 4 kts 19°
2026-04-27 17:44 17.93305 -76.77740 13 ft 5 kts
2026-04-27 17:44 17.93311 -76.77741 13 ft 0 kts 355°
2026-04-27 17:45 17.93312 -76.77741 13 ft 1 kts 353°
2026-04-27 17:45 17.93326 -76.77746 13 ft 3 kts 333°
2026-04-27 17:45 17.93350 -76.77778 14 ft 8 kts 298°
2026-04-27 17:45 17.93375 -76.77839 15 ft 10 kts 290°
2026-04-27 17:46 17.93404 -76.77915 15 ft 12 kts 292°
2026-04-27 17:46 17.93441 -76.78006 14 ft 15 kts 290°
2026-04-27 17:46 17.93480 -76.78113 14 ft 17 kts 294°
2026-04-27 17:46 17.93573 -76.78145 14 ft 17 kts 20°
2026-04-27 17:47 17.93639 -76.78078 13 ft 6 kts 120°
2026-04-27 17:47 17.93629 -76.78056 14 ft 3 kts 110°
2026-04-27 17:47 17.93627 -76.78050 13 ft 0 kts 111°